VJH18G LFPB-LFMD

Flight info

Callsign VJH18G
Flight time N/A
Altitude 35000
Route LATRA DCT LAMUT DCT UTUVA DCT LERGA DCT LIQID DCT LATAM DCT MTL DCT XATEL
Aircraft E35L/M-SABDFGRW/S

Departure

Time N/A
Airport Paris-Le Bourget International Airport (LFPB)

Arrival

Time 2026-04-21 21:01
Airport Cannes Mandelieu Airport (LFMD)
Time Latitude Longitude Altitude Speed Heading
2026-04-21 20:09 45.52222 3.64940 35070 ft 446 kts 170°
2026-04-21 20:10 45.49245 3.66077 35035 ft 441 kts 171°
2026-04-21 20:10 45.43344 3.68397 35024 ft 436 kts 168°
2026-04-21 20:11 45.37553 3.71407 35036 ft 460 kts 158°
2026-04-21 20:11 45.34781 3.73792 35038 ft 476 kts 148°
2026-04-21 20:11 45.32191 3.76830 35037 ft 491 kts 139°
2026-04-21 20:11 45.29876 3.80445 35036 ft 503 kts 130°
2026-04-21 20:12 45.27702 3.84372 35026 ft 501 kts 133°
2026-04-21 20:12 45.23181 3.91737 35030 ft 492 kts 133°
2026-04-21 20:13 45.18747 3.98972 35028 ft 485 kts 133°
2026-04-21 20:13 45.14340 4.06147 35022 ft 479 kts 133°
2026-04-21 20:14 45.09994 4.13206 35022 ft 474 kts 134°
2026-04-21 20:14 45.05658 4.20227 35023 ft 473 kts 134°
2026-04-21 20:15 45.00968 4.26692 35024 ft 470 kts 144°
2026-04-21 20:15 44.95831 4.32515 35021 ft 475 kts 144°
2026-04-21 20:16 44.90678 4.38368 35013 ft 479 kts 144°
2026-04-21 20:16 44.85450 4.44294 35006 ft 482 kts 144°
2026-04-21 20:17 44.80207 4.50223 35000 ft 484 kts 144°
2026-04-21 20:17 44.74935 4.56170 34997 ft 485 kts 144°
2026-04-21 20:18 44.70532 4.61126 34993 ft 486 kts 144°
2026-04-21 20:18 44.64332 4.68088 34977 ft 487 kts 144°
2026-04-21 20:19 44.59026 4.74031 34967 ft 487 kts 144°
2026-04-21 20:19 44.53908 4.80160 34970 ft 489 kts 137°
2026-04-21 20:20 44.49124 4.86949 34976 ft 488 kts 137°
2026-04-21 20:20 44.44330 4.93685 34874 ft 487 kts 137°
2026-04-21 20:20 44.41969 4.96997 34605 ft 480 kts 137°
2026-04-21 20:21 44.39632 5.00269 34305 ft 472 kts 137°
2026-04-21 20:21 44.37331 5.03488 34003 ft 466 kts 137°
2026-04-21 20:21 44.35038 5.06691 33703 ft 460 kts 137°
2026-04-21 20:21 44.32804 5.09809 33352 ft 456 kts 137°
2026-04-21 20:22 44.30579 5.12910 32813 ft 447 kts 137°
2026-04-21 20:22 44.25851 5.18727 31762 ft 461 kts 149°
2026-04-21 20:22 44.23076 5.20958 31243 ft 466 kts 156°
2026-04-21 20:23 44.20183 5.23112 30725 ft 474 kts 155°
2026-04-21 20:23 44.17275 5.25321 30204 ft 481 kts 154°
2026-04-21 20:23 44.14317 5.27575 29672 ft 487 kts 154°
2026-04-21 20:23 44.11331 5.29852 29144 ft 492 kts 154°
2026-04-21 20:24 44.08341 5.32130 28573 ft 483 kts 154°
2026-04-21 20:24 44.05436 5.34339 27298 ft 483 kts 154°
2026-04-21 20:24 44.02504 5.36566 25729 ft 488 kts 154°
2026-04-21 20:24 43.99513 5.38836 24582 ft 483 kts 154°
2026-04-21 20:25 43.96615 5.41032 24200 ft 480 kts 154°
2026-04-21 20:25 43.93675 5.43255 23829 ft 469 kts 154°
2026-04-21 20:25 43.90901 5.45349 23485 ft 448 kts 154°
2026-04-21 20:25 43.88227 5.47366 23061 ft 428 kts 154°
2026-04-21 20:26 43.85664 5.49296 22550 ft 418 kts 154°
2026-04-21 20:26 43.83075 5.51242 22030 ft 424 kts 154°
2026-04-21 20:26 43.80467 5.53203 21423 ft 420 kts 154°
2026-04-21 20:26 43.77977 5.55075 20738 ft 398 kts 154°
2026-04-21 20:27 43.75620 5.57064 20096 ft 399 kts 143°
2026-04-21 20:27 43.73745 5.59924 19470 ft 402 kts 128°
2026-04-21 20:27 43.72066 5.62931 18834 ft 398 kts 129°
2026-04-21 20:27 43.70380 5.65928 18130 ft 392 kts 129°
2026-04-21 20:28 43.68714 5.68879 17420 ft 386 kts 129°
2026-04-21 20:28 43.67112 5.71715 16691 ft 382 kts 129°
2026-04-21 20:28 43.65488 5.74573 15968 ft 377 kts 129°
2026-04-21 20:28 43.63859 5.77436 15250 ft 373 kts 129°
2026-04-21 20:29 43.62273 5.80222 14556 ft 368 kts 129°
2026-04-21 20:29 43.60701 5.82979 13860 ft 365 kts 129°
2026-04-21 20:29 43.59133 5.85728 13177 ft 361 kts 129°
2026-04-21 20:29 43.57611 5.88396 12557 ft 356 kts 128°
2026-04-21 20:30 43.56079 5.91088 11888 ft 352 kts 128°
2026-04-21 20:30 43.54573 5.93731 11288 ft 347 kts 128°
2026-04-21 20:30 43.53067 5.96370 10860 ft 359 kts 128°
2026-04-21 20:30 43.51522 5.99076 10615 ft 358 kts 128°
2026-04-21 20:31 43.50024 6.01698 10345 ft 341 kts 128°
2026-04-21 20:31 43.48587 6.04211 10086 ft 327 kts 128°
2026-04-21 20:31 43.47198 6.06638 9821 ft 314 kts 128°
2026-04-21 20:31 43.45866 6.08962 9565 ft 305 kts 128°
2026-04-21 20:32 43.44566 6.11242 9343 ft 302 kts 126°
2026-04-21 20:32 43.43454 6.13696 9066 ft 298 kts 120°
2026-04-21 20:32 43.42398 6.16128 8827 ft 296 kts 120°
2026-04-21 20:32 43.41336 6.18567 8603 ft 298 kts 121°
2026-04-21 20:33 43.40277 6.21000 8339 ft 299 kts 121°
2026-04-21 20:33 43.39194 6.23481 8083 ft 300 kts 121°
2026-04-21 20:33 43.38114 6.25932 7944 ft 296 kts 122°
2026-04-21 20:33 43.37020 6.28259 7929 ft 287 kts 123°
2026-04-21 20:34 43.35952 6.30533 7923 ft 282 kts 123°
2026-04-21 20:34 43.35090 6.32958 7921 ft 283 kts 111°
2026-04-21 20:34 43.34177 6.35312 8210 ft 273 kts 125°
2026-04-21 20:34 43.33029 6.37338 8007 ft 272 kts 129°
2026-04-21 20:35 43.31786 6.39237 7943 ft 264 kts 146°
2026-04-21 20:35 43.30142 6.40076 7932 ft 243 kts 181°
2026-04-21 20:35 43.28605 6.39555 7938 ft 218 kts 218°
2026-04-21 20:35 43.27729 6.38021 7964 ft 201 kts 257°
2026-04-21 20:36 43.27813 6.36104 7976 ft 211 kts 295°
2026-04-21 20:36 43.28624 6.34410 7952 ft 213 kts 305°
2026-04-21 20:36 43.29472 6.32724 7941 ft 212 kts 303°
2026-04-21 20:36 43.30260 6.31088 7881 ft 199 kts 302°
2026-04-21 20:37 43.30989 6.29561 7951 ft 191 kts 302°
2026-04-21 20:37 43.31723 6.28025 7930 ft 189 kts 303°
2026-04-21 20:37 43.32440 6.26527 7940 ft 187 kts 302°
2026-04-21 20:37 43.33172 6.25057 7950 ft 187 kts 313°
2026-04-21 20:38 43.34328 6.24275 7970 ft 194 kts 354°
2026-04-21 20:38 43.35637 6.24815 7970 ft 206 kts 36°
2026-04-21 20:38 43.36413 6.26483 7966 ft 216 kts 76°
2026-04-21 20:38 43.36253 6.28540 7962 ft 221 kts 113°
2026-04-21 20:39 43.35630 6.30488 7939 ft 224 kts 115°
2026-04-21 20:39 43.34907 6.32402 7947 ft 226 kts 119°
2026-04-21 20:39 43.34118 6.34287 7954 ft 229 kts 121°
2026-04-21 20:39 43.33286 6.36140 7951 ft 232 kts 122°
2026-04-21 20:40 43.32363 6.37984 7928 ft 233 kts 135°
2026-04-21 20:40 43.31025 6.39012 7951 ft 217 kts 174°
2026-04-21 20:40 43.29622 6.38703 7963 ft 203 kts 216°
2026-04-21 20:40 43.28752 6.37262 7972 ft 196 kts 256°
2026-04-21 20:41 43.28824 6.35453 7964 ft 193 kts 296°
2026-04-21 20:41 43.29576 6.33934 7948 ft 195 kts 305°
2026-04-21 20:41 43.30346 6.32397 7793 ft 195 kts 303°
2026-04-21 20:41 43.31086 6.30851 7511 ft 194 kts 302°
2026-04-21 20:42 43.31817 6.29326 7288 ft 188 kts 302°
2026-04-21 20:42 43.32538 6.27818 7060 ft 191 kts 302°
2026-04-21 20:42 43.33268 6.26294 6955 ft 186 kts 302°
2026-04-21 20:42 43.33987 6.24871 6933 ft 181 kts 315°
2026-04-21 20:43 43.35126 6.24199 6966 ft 184 kts 358°
2026-04-21 20:43 43.36369 6.24863 6978 ft 208 kts 39°
2026-04-21 20:43 43.37098 6.26666 6968 ft 228 kts 79°
2026-04-21 20:43 43.36902 6.28827 6966 ft 236 kts 111°
2026-04-21 20:44 43.36252 6.30918 6938 ft 237 kts 113°
2026-04-21 20:44 43.35600 6.33004 6940 ft 239 kts 113°
2026-04-21 20:44 43.34935 6.35124 6957 ft 242 kts 113°
2026-04-21 20:44 43.34264 6.37262 6929 ft 240 kts 113°
2026-04-21 20:45 43.33606 6.39354 6926 ft 240 kts 113°
2026-04-21 20:45 43.32944 6.41463 6925 ft 238 kts 113°
2026-04-21 20:45 43.32303 6.43509 6933 ft 236 kts 113°
2026-04-21 20:45 43.31647 6.45601 6943 ft 238 kts 113°
2026-04-21 20:46 43.30989 6.47698 6932 ft 239 kts 113°
2026-04-21 20:46 43.30335 6.49789 6913 ft 238 kts 113°
2026-04-21 20:46 43.29687 6.51860 6923 ft 236 kts 113°
2026-04-21 20:46 43.29048 6.53916 6813 ft 236 kts 113°
2026-04-21 20:47 43.28399 6.56010 6592 ft 237 kts 113°
2026-04-21 20:47 43.27761 6.58077 6400 ft 237 kts 113°
2026-04-21 20:47 43.27114 6.60182 6202 ft 236 kts 113°
2026-04-21 20:47 43.26481 6.62246 6007 ft 235 kts 113°
2026-04-21 20:48 43.25853 6.64313 5808 ft 233 kts 113°
2026-04-21 20:48 43.25471 6.66444 5584 ft 233 kts 94°
2026-04-21 20:48 43.25373 6.68679 5369 ft 232 kts 94°
2026-04-21 20:48 43.25276 6.70879 5187 ft 232 kts 94°
2026-04-21 20:49 43.25181 6.73092 4957 ft 230 kts 94°
2026-04-21 20:49 43.25092 6.75266 4535 ft 231 kts 94°
2026-04-21 20:49 43.25006 6.77459 4081 ft 229 kts 94°
2026-04-21 20:49 43.24926 6.79612 3669 ft 227 kts 94°
2026-04-21 20:50 43.24845 6.81773 3235 ft 226 kts 94°
2026-04-21 20:50 43.24770 6.83935 2822 ft 224 kts 94°
2026-04-21 20:50 43.24701 6.86055 2473 ft 223 kts 94°
2026-04-21 20:50 43.24636 6.88173 2308 ft 222 kts 94°
2026-04-21 20:51 43.24863 6.90223 2112 ft 222 kts 63°
2026-04-21 20:51 43.25861 6.91814 1980 ft 216 kts 34°
2026-04-21 20:51 43.27101 6.92882 1957 ft 208 kts 27°
2026-04-21 20:51 43.28425 6.93829 1968 ft 215 kts 24°
2026-04-21 20:52 43.29763 6.94723 1962 ft 217 kts 24°
2026-04-21 20:52 43.31157 6.95634 1965 ft 219 kts 23°
2026-04-21 20:52 43.32541 6.96533 1963 ft 219 kts 23°
2026-04-21 20:52 43.33925 6.97430 1965 ft 223 kts 24°
2026-04-21 20:53 43.35332 6.98343 1962 ft 221 kts 24°
2026-04-21 20:53 43.36695 6.99227 1953 ft 212 kts 24°
2026-04-21 20:53 43.38073 6.99675 1955 ft 197 kts 351°
2026-04-21 20:53 43.39382 6.99352 1953 ft 187 kts 347°
2026-04-21 20:54 43.40670 6.99008 1960 ft 195 kts 346°
2026-04-21 20:54 43.41988 6.98643 1956 ft 189 kts 346°
2026-04-21 20:54 43.43276 6.98283 1967 ft 193 kts 346°
2026-04-21 20:54 43.44619 6.97906 1955 ft 195 kts 346°
2026-04-21 20:55 43.45925 6.97539 1944 ft 184 kts 345°
2026-04-21 20:55 43.47149 6.97193 1967 ft 175 kts 345°
2026-04-21 20:55 43.48334 6.96858 1978 ft 183 kts 346°
2026-04-21 20:55 43.49581 6.96520 1968 ft 180 kts 352°
2026-04-21 20:56 43.50798 6.96906 2000 ft 184 kts 27°
2026-04-21 20:56 43.51888 6.97750 1970 ft 178 kts 28°
2026-04-21 20:56 43.52955 6.98569 1962 ft 171 kts 28°
2026-04-21 20:56 43.54005 6.99318 1963 ft 166 kts 14°
2026-04-21 20:57 43.55181 6.99384 2008 ft 177 kts 353°
2026-04-21 20:57 43.56410 6.99248 1965 ft 174 kts 353°
2026-04-21 20:57 43.57585 6.99114 1959 ft 166 kts 353°
2026-04-21 20:57 43.58718 6.98993 1963 ft 159 kts 354°
2026-04-21 20:58 43.59805 6.98881 1972 ft 155 kts 353°
2026-04-21 20:58 43.60878 6.98747 1864 ft 149 kts 343°
2026-04-21 20:58 43.61652 6.98037 1788 ft 122 kts 287°
2026-04-21 20:58 43.61460 6.96977 1590 ft 125 kts 235°
2026-04-21 20:59 43.60946 6.96034 1426 ft 126 kts 227°
2026-04-21 20:59 43.60345 6.95074 1381 ft 130 kts 234°
2026-04-21 20:59 43.59694 6.94236 1188 ft 129 kts 198°
2026-04-21 20:59 43.58839 6.94379 1009 ft 125 kts 174°
2026-04-21 21:00 43.57999 6.94518 789 ft 124 kts 174°
2026-04-21 21:00 43.57149 6.94686 527 ft 121 kts 174°
2026-04-21 21:00 43.56354 6.94810 307 ft 111 kts 175°
2026-04-21 21:00 43.55561 6.94947 119 ft 116 kts 172°
2026-04-21 21:01 43.54822 6.95084 28 ft 90 kts 173°
2026-04-21 21:01 43.54464 6.95145 27 ft 30 kts 172°
2026-04-21 21:01 43.54411 6.95221 27 ft 10 kts 81°
2026-04-21 21:01 43.54418 6.95289 27 ft 5 kts 82°
2026-04-21 21:02 43.54425 6.95316 27 ft 3 kts 35°
2026-04-21 21:02 43.54476 6.95314 27 ft 11 kts 353°
2026-04-21 21:02 43.54557 6.95300 27 ft 12 kts 353°
2026-04-21 21:02 43.54642 6.95284 27 ft 12 kts 353°
2026-04-21 21:03 43.54695 6.95280 27 ft 2 kts 46°
2026-04-21 21:03 43.54701 6.95325 27 ft 5 kts 84°
2026-04-21 21:03 43.54695 6.95361 27 ft 4 kts 159°
2026-04-21 21:03 43.54674 6.95365 27 ft 0 kts 172°
2026-04-21 21:05 43.54678 6.95364 27 ft 2 kts 172°
2026-04-21 21:05 43.54682 6.95363 27 ft 0 kts 172°
2026-04-21 21:05 43.54674 6.95365 27 ft 0 kts 172°